Lid_Strength_Index
1 1 0 0 0 0 -0 -0 -0 -1 -1 -1 -1 -1 -1 -1 -0 1 5 3 2 -1 1 5 6 7 7 7 7 9 13 14 13 13 11 10 10 9 9 9 9 9 10 9 8
1 1 1 0 0 0 0 -0 -0 -1 -1 -1 -1 -1 -1 -1 2 4 1 -2 -2 -1 5 7 8 8 9 8 8 11 13 13 12 11 11 9 10 10 11 10 10 10 9 8 8
0 1 1 1 0 0 0 0 -0 -0 -1 -1 -1 -1 -1 0 5 5 -1 -2 -1 0 4 6 6 8 10 10 10 10 13 12 11 9 9 9 10 9 11 12 10 10 10 9 9
-0 0 1 1 0 0 0 -0 -0 -0 -0 -1 -1 -1 -0 3 11 4 -1 -2 -1 3 5 6 8 10 11 11 9 12 10 10 9 9 9 10 9 11 11 11 9 9 9 10 10
-0 0 0 0 1 0 -0 -0 -0 -0 -0 -1 -1 -1 2 7 6 2 -1 -1 3 5 6 7 9 9 11 11 10 11 10 9 9 9 10 9 10 11 10 10 9 9 9 10 10
-0 0 0 0 0 0 0 -0 -0 -0 -0 -1 -1 -0 4 9 3 2 2 3 4 6 7 7 8 8 10 11 11 10 10 10 9 9 9 10 11 10 11 10 10 10 11 11 10
-0 0 0 0 0 0 0 -0 -0 -0 -0 -1 -0 2 5 6 3 3 4 5 5 5 7 6 7 9 9 10 9 10 12 11 10 9 10 10 12 11 11 11 11 11 11 11 11
0 0 0 0 0 0 -0 0 -0 0 -0 -1 -0 3 7 3 3 3 4 5 5 5 5 6 6 8 9 8 10 12 12 14 11 10 11 11 14 11 11 11 12 12 12 12 12
0 0 0 0 0 0 0 0 0 -0 -0 -0 3 5 7 2 4 3 5 6 6 6 6 5 7 9 10 12 14 14 16 14 12 10 11 12 13 12 11 11 13 13 13 13 13
0 0 0 0 0 0 0 0 0 1 1 1 2 8 6 7 5 4 4 5 7 7 8 8 10 12 12 14 17 15 15 13 13 12 12 13 13 12 12 12 12 13 13 13 13
1 1 0 0 0 -0 1 2 5 6 5 7 7 7 7 6 5 5 5 6 7 8 11 10 13 14 12 13 12 13 14 15 13 12 14 13 13 12 12 13 13 14 13 13 13
1 1 1 1 0 0 2 4 4 5 8 5 5 5 6 6 9 6 5 8 9 11 10 12 14 11 11 11 12 13 15 15 13 12 14 14 14 12 12 12 12 12 13 14 15
1 1 1 1 1 1 3 4 3 4 8 7 5 5 5 7 8 8 7 8 10 12 12 14 12 9 11 12 13 14 14 14 14 14 14 15 16 15 12 12 12 11 12 13 14
1 1 1 1 3 3 4 2 2 4 12 10 8 6 7 7 10 6 6 9 11 12 11 13 10 11 13 13 12 15 12 13 13 15 18 15 18 16 14 14 13 12 13 13 14
3 1 1 1 3 4 3 2 3 5 19 10 9 6 7 9 10 10 9 10 13 12 11 14 13 13 13 13 12 14 12 13 14 16 17 17 18 18 14 14 14 13 14 14 14
3 2 1 2 3 3 2 2 4 13 19 11 10 11 11 10 11 11 11 10 11 13 13 14 13 13 13 13 12 12 13 14 15 16 20 17 17 16 14 12 11 13 14 15 14
3 2 2 1 4 2 2 4 13 18 10 12 12 11 11 12 13 13 13 14 14 16 16 14 14 13 12 14 13 13 16 19 20 21 20 16 17 15 13 13 12 14 14 15 14
3 2 3 2 2 1 3 9 17 13 13 11 11 11 13 12 13 13 14 16 14 14 16 17 17 13 13 13 15 15 15 19 23 22 20 18 19 16 13 14 13 13 13 14 14
3 3 3 3 2 2 7 15 15 13 10 12 11 12 12 12 11 13 14 15 14 13 16 17 16 13 13 13 12 16 16 13 16 24 22 18 17 14 14 15 15 15 14 15 14
5 5 5 2 2 3 10 13 12 9 9 10 14 12 14 13 12 14 14 13 13 12 11 13 16 14 15 13 14 14 13 17 15 22 22 19 19 16 16 16 15 15 14 14 14
6 8 5 2 2 7 13 12 10 7 7 10 12 13 12 13 12 13 13 12 11 12 11 12 13 17 15 16 15 16 16 15 14 18 22 23 18 14 13 14 15 14 14 14 14
7 12 5 2 9 9 12 10 8 9 7 9 9 10 12 11 12 12 13 11 10 11 13 11 13 17 17 14 13 13 14 13 17 20 18 19 17 15 14 13 13 13 13 13 14
9 9 3 3 12 12 10 11 9 9 9 9 10 9 9 11 14 12 11 9 9 9 11 10 14 18 16 15 14 15 14 13 14 16 17 20 16 15 14 14 14 14 13 13 14
8 11 9 6 6 10 11 12 12 9 9 8 10 9 10 12 10 13 12 10 10 9 8 9 13 15 18 16 16 18 15 14 13 16 18 16 15 15 15 15 15 14 13 13 14
7 11 9 12 11 9 9 10 12 12 9 9 10 10 11 13 12 13 11 11 11 9 9 10 15 14 13 13 13 15 17 15 15 14 16 14 14 12 13 14 13 13 14 14 14
8 10 8 9 10 10 11 11 11 10 10 11 11 10 10 12 11 13 11 11 11 12 11 11 15 14 15 13 13 14 14 13 15 14 13 13 14 12 11 13 13 13 13 14 14
6 5 7 9 10 11 12 12 11 9 8 8 9 10 11 10 8 8 9 9 9 12 12 13 14 16 17 15 14 17 14 14 13 12 14 15 13 12 11 11 13 13 13 13 13